Flag for France Weather past 2 weeks in Aix-en-Provence, France

Now
46 °F

Partly cloudy.


Feels Like: 42 °F
Forecast: 31 / 41 °F
Wind: 9 mph from Northwest

Location: Marseille / Marignane

Current Time: Dec 27, 2014 at 6:16:14 PM

Latest Report: Dec 27, 2014 at 5:30 PM


Visibility: N/A

Pressure: 29.77 "Hg

Humidity: 76%

Dew point: 39 °F

Location of Aix-en-ProvenceLocation

Historic Weather in Aix-en-Provence — Graph

°F

Aix-en-Provence temperature yesterday

Maximum temperature yesterday: 50 °F (at 1:30 PM)
Minimum temperature yesterday: 41 °F (at 11:30 PM)
Average temperature yesterday: 46 °F

Past Weeks' High & Low Weather Summary

 TemperatureHumidityPressure
High64 °F (Dec 14, 12:30 PM)94% (Dec 15, 6:00 AM)30.48 "Hg (Dec 15, 6:00 AM)
Low34 °F (Dec 23, 6:00 AM)46% (Dec 26, 5:00 PM)29.74 "Hg (Dec 27, 2:30 PM)
Average51 °F74%30.17 "Hg
* Reported Dec 12 5:00 PM — Dec 27 5:00 PM, Aix-en-Provence, Weather by CustomWeather, © 2014

Note: Actual official high and low records may vary slightly from our data, if they occured in-between our weather recording intervals... More about our weather records

Advertising

Aix-en-Provence weather history for previous 24 hours

 ConditionsComfort  
Time TempWeatherWind HumidityBarometerVisibility
5:00 PM
Dec 27
48 °FBroken clouds.12 mph76%29.77 "HgN/A
4:30 PM48 °FPartly sunny.15 mph82%29.77 "HgN/A
4:00 PM50 °FPartly sunny.20 mph71%29.74 "HgN/A
3:30 PM52 °FPartly sunny.25 mph67%29.74 "HgN/A
3:00 PM52 °FBroken clouds.26 mph72%29.74 "HgN/A
2:30 PM52 °FBroken clouds.28 mph72%29.74 "HgN/A
2:00 PM52 °FBroken clouds.21 mph77%29.77 "HgN/A
1:30 PM50 °FBroken clouds.10 mph82%29.80 "HgN/A
1:00 PM50 °FPartly sunny.6 mph82%29.80 "HgN/A
12:30 PM50 °FPartly sunny.6 mph82%29.83 "HgN/A
12:00 PM48 °FLight rain. Partly sunny.2 mph82%29.86 "HgN/A
11:30 AM46 °FLight rain. Partly sunny.No wind87%29.89 "HgN/A
11:00 AM45 °FLight rain. Partly sunny.No wind81%29.92 "HgN/A
10:30 AM43 °FLight rain. Partly sunny.2 mph81%29.95 "HgN/A
10:00 AM43 °FPartly sunny.3 mph71%29.95 "HgN/A
9:30 AM41 °FPartly sunny.No wind76%29.98 "HgN/A
9:00 AM41 °FBroken clouds.No wind70%30.01 "HgN/A
8:30 AM41 °FPartly sunny.3 mph66%30.04 "HgN/A
8:00 AM39 °FPassing clouds.5 mph70%30.04 "HgN/A
7:30 AM39 °FPartly cloudy.2 mph70%30.07 "HgN/A
7:00 AM39 °FClear.3 mph65%30.09 "Hg10 mi
6:30 AM37 °FClear.6 mph75%30.09 "Hg10 mi
6:00 AM37 °FClear.5 mph75%30.12 "Hg10 mi
5:30 AM36 °FClear.6 mph81%30.15 "Hg10 mi
4:30 AM36 °FClear.6 mph75%30.15 "Hg10 mi
4:00 AM37 °FClear.2 mph70%30.18 "Hg10 mi
3:30 AM39 °FClear.3 mph65%30.18 "HgN/A
3:00 AM39 °FClear.6 mph70%30.21 "HgN/A
2:30 AM39 °FClear.9 mph65%30.21 "HgN/A
2:00 AM39 °FClear.6 mph65%30.21 "HgN/A
1:30 AM39 °FClear.8 mph65%30.21 "HgN/A
1:00 AM41 °FClear.12 mph61%30.21 "HgN/A
12:30 AM41 °FClear.13 mph61%30.24 "HgN/A
12:00 AM41 °FClear.14 mph61%30.24 "Hg10 mi
11:30 PM
Dec 26
41 °FClear.13 mph66%30.24 "Hg10 mi
11:00 PM43 °FClear.15 mph57%30.24 "Hg10 mi
10:30 PM43 °FClear.16 mph57%30.24 "Hg10 mi
10:00 PM45 °FClear.13 mph53%30.27 "Hg10 mi
9:30 PM45 °FPassing clouds.10 mph53%30.27 "HgN/A
9:00 PM45 °FClear.14 mph53%30.27 "Hg10 mi
8:30 PM45 °FPassing clouds.12 mph53%30.27 "HgN/A
8:00 PM45 °FPassing clouds.15 mph53%30.27 "HgN/A
7:30 PM45 °FPassing clouds.10 mph53%30.27 "HgN/A
7:00 PM46 °FClear.17 mph50%30.30 "Hg10 mi
6:30 PM46 °FClear.21 mph50%30.27 "Hg10 mi
6:00 PM46 °FClear.25 mph46%30.30 "Hg10 mi
Weather by CustomWeather, © 2014

See weather overviewHow to use our weather pages